Simultaneous Nadir Overpasses (SNOs) Predictions

Prediction of SNOs between LANDSAT-8 and METOP-B Satellite Orbit:

Table of predicted SNOs for the next 14.0 days since TLE Epoch: 10/18/2025
Index Date (LANDSAT-8) Time (LANDSAT-8) Lat,Lon (LANDSAT-8) SZA (LANDSAT-8 ) Date (METOP-B) Time (METOP-B) Lat,Lon (METOP-B) SZA (METOP-B ) Distance(km) Time Diff (sec)
1 10/20/2025 13:23:45 -81.36,-156.91 85.34 10/20/2025 13:23:41 -81.35,-157.00 85.35 1.58 4
2 10/20/2025 14:13:12 81.35, 10.44 94.64 10/20/2025 14:14:21 81.35, 10.48 94.68 1.21 69
3 10/23/2025 08:08:31 81.35, 101.69 95.62 10/23/2025 08:07:41 81.35, 101.62 95.60 1.23 50
4 10/23/2025 08:57:58 -81.35, -90.73 84.38 10/23/2025 08:58:22 -81.35, -90.78 84.37 1.27 24
5 10/26/2025 03:42:43 81.36, 168.38 96.63 10/26/2025 03:42:21 81.36, 168.55 96.64 2.92 22
6 10/26/2025 04:32:10 -81.36, -24.02 83.37 10/26/2025 04:33:02 -81.36, -23.88 83.33 2.38 52
7 10/28/2025 22:27:29 -81.36, 67.18 82.44 10/28/2025 22:26:23 -81.35, 67.07 82.49 1.97 66
8 10/28/2025 23:16:55 81.36,-125.17 97.58 10/28/2025 23:17:02 81.36,-125.01 97.60 2.73 7
9 10/31/2025 18:01:41 -81.35, 133.41 81.55 10/31/2025 18:01:04 -81.35, 133.39 81.57 0.56 37



Historial Predications of SNOs between LANDSAT-8 and METOP-B
